Pontiac, IL

1:42 AM CDT on September 20, 2017 (GMT -0500)
Pontiac Municipal

Weather History for KPNT - January, 2013

Change the Weather History Date:

Friday, January 11, 2013

  Actual Average Record
Temperature  
Mean Temperature 52 °F -  
Max Temperature 57 °F 27 °F 57 °F (1975)
Min Temperature 48 °F 12 °F -15 °F (1982)
Degree Days  
Heating Degree Days 12    
Growing Degree Days 2 (Base 50)    
Moisture  
Dew Point 50 °F    
Average Humidity 92    
Maximum Humidity 100    
Minimum Humidity 82    
Precipitation  
Precipitation 0.15 in - - ()
Sea Level Pressure  
Sea Level Pressure 29.76 in    
Wind  
Wind Speed 14 mph (South)    
Max Wind Speed 24 mph    
Max Gust Speed 30 mph    
Visibility 8 miles    
Events Rain    
Averages and records for this station are not official NWS values.
T = Trace of Precipitation, MM = Missing Value Source: NWS Daily Summary

Daily Weather History Graph

Daily Weather History Graph

Search for Another Location

Airport or City:

Trip Planner

Search our weather history database for the weather conditions in past years. The results will help you decide how hot, cold, wet, or windy it might be!

Date:

Astronomy

Jan. 11, 2013 Rise Set
Actual Time 7:18 AM CST 4:47 PM CST
Civil Twilight 6:47 AM CST 5:17 PM CST
Nautical Twilight 6:13 AM CST 5:51 PM CST
Astronomical Twilight 5:40 AM CST 6:24 PM CST
Moon 6:50 AM CST (1/11) 5:05 PM CST (1/11)
Length of Visible Light 10h 29m
Length of Day
9h 28m
Waning Crescent, 0% of the Moon is Illuminated
Jan 11
Waning Crescent
Jan 11
New
Jan 18
First Quarter
Jan 26
Full
Feb 3
Last Quarter

Hourly Weather History & Observations

Time (CST) Temp. Dew Point Humidity Pressure Visibility Wind Dir Wind Speed Gust Speed Precip Events Conditions
12:15 AM 48.2 °F 46.4 °F 93% 29.82 in 3.0 mi SE 13.8 mph - N/A   Overcast
12:35 AM 48.2 °F 48.2 °F 100% 29.80 in 2.5 mi SE 16.1 mph - 0.02 in Rain Light Rain
12:55 AM 50.0 °F 48.2 °F 94% 29.79 in 3.0 mi SE 18.4 mph - 0.04 in Rain Rain
1:15 AM 50.0 °F 50.0 °F 100% 29.80 in 4.0 mi SSE 11.5 mph - 0.07 in Rain Heavy Rain
1:35 AM 51.8 °F 51.8 °F 100% 29.79 in 5.0 mi SSE 15.0 mph 19.6 mph 0.08 in Rain Light Rain
1:55 AM 51.8 °F 51.8 °F 100% 29.79 in 4.0 mi SSE 13.8 mph 18.4 mph 0.08 in   Overcast
2:15 AM 51.8 °F 51.8 °F 100% 29.79 in 4.0 mi SSE 15.0 mph - 0.01 in Rain Light Rain
2:35 AM 51.8 °F 51.8 °F 100% 29.78 in 4.0 mi SSE 10.4 mph 16.1 mph 0.01 in Rain Light Rain
2:55 AM 51.8 °F 51.8 °F 100% 29.74 in 7.0 mi SE 9.2 mph - 0.03 in Rain Light Rain
3:15 AM 51.8 °F 51.8 °F 100% 29.73 in 4.0 mi SE 10.4 mph - N/A   Overcast
3:35 AM 51.8 °F 51.8 °F 100% 29.71 in 4.0 mi SE 11.5 mph - N/A   Overcast
3:55 AM 51.8 °F 51.8 °F 100% 29.71 in 2.5 mi SSE 12.7 mph - N/A   Overcast
4:15 AM 53.6 °F 53.6 °F 100% 29.70 in 2.5 mi South 15.0 mph - N/A   Overcast
4:35 AM 53.6 °F 53.6 °F 100% 29.70 in 2.5 mi South 12.7 mph 17.3 mph N/A   Overcast
4:55 AM 53.6 °F 53.6 °F 100% 29.69 in 1.8 mi South 12.7 mph - N/A   Overcast
5:15 AM 53.6 °F 53.6 °F 100% 29.69 in 1.5 mi SSW 12.7 mph - N/A Rain Light Rain
5:35 AM 53.6 °F 53.6 °F 100% 29.71 in 5.0 mi SSW 15.0 mph - N/A   Overcast
5:55 AM 53.6 °F 53.6 °F 100% 29.72 in 7.0 mi SW 15.0 mph - N/A   Overcast
6:15 AM 51.8 °F 51.8 °F 100% 29.72 in 10.0 mi WSW 15.0 mph 25.3 mph N/A   Mostly Cloudy
6:35 AM 51.8 °F 51.8 °F 100% 29.75 in 10.0 mi SW 16.1 mph - N/A   Mostly Cloudy
6:55 AM 51.8 °F 50.0 °F 94% 29.75 in 10.0 mi WSW 15.0 mph 21.9 mph N/A   Overcast
7:15 AM 50.0 °F 50.0 °F 100% 29.76 in 10.0 mi WSW 11.5 mph - N/A   Overcast
7:35 AM 50.0 °F 50.0 °F 100% 29.78 in 10.0 mi WSW 13.8 mph - N/A   Overcast
7:55 AM 48.2 °F 48.2 °F 100% 29.80 in 7.0 mi WSW 10.4 mph - N/A   Overcast
8:15 AM 48.2 °F 48.2 °F 100% 29.80 in 5.0 mi WSW 9.2 mph - N/A   Overcast
8:35 AM 48.2 °F 48.2 °F 100% 29.81 in 5.0 mi WSW 11.5 mph 18.4 mph N/A   Overcast
8:55 AM 48.2 °F 48.2 °F 100% 29.81 in 4.0 mi SW 9.2 mph - N/A   Overcast
9:15 AM 48.2 °F 48.2 °F 100% 29.81 in 4.0 mi SW 10.4 mph - N/A   Overcast
9:35 AM 50.0 °F 48.2 °F 94% 29.82 in 4.0 mi SSW 13.8 mph 19.6 mph N/A   Overcast
9:55 AM 48.2 °F 48.2 °F 100% 29.82 in 4.0 mi SSW 12.7 mph 17.3 mph N/A   Overcast
10:15 AM 48.2 °F 48.2 °F 100% 29.82 in 2.5 mi SW 12.7 mph - N/A   Overcast
10:35 AM 50.0 °F 48.2 °F 94% 29.82 in 4.0 mi SW 12.7 mph - N/A   Overcast
10:55 AM 50.0 °F 48.2 °F 94% 29.82 in 5.0 mi SW 15.0 mph - N/A   Overcast
11:15 AM 50.0 °F 48.2 °F 94% 29.81 in 7.0 mi SSW 12.7 mph 19.6 mph N/A   Overcast
11:35 AM 51.8 °F 48.2 °F 88% 29.79 in 7.0 mi SW 8.1 mph - N/A   Mostly Cloudy
11:55 AM 51.8 °F 48.2 °F 88% 29.79 in 7.0 mi SSW 12.7 mph - N/A   Mostly Cloudy
12:15 PM 51.8 °F 48.2 °F 88% 29.79 in 10.0 mi SSW 10.4 mph 18.4 mph N/A   Mostly Cloudy
12:35 PM 51.8 °F 50.0 °F 94% 29.78 in 10.0 mi SSW 10.4 mph - N/A   Mostly Cloudy
12:55 PM 53.6 °F 50.0 °F 88% 29.76 in 10.0 mi South 16.1 mph - N/A   Mostly Cloudy
1:15 PM 53.6 °F 50.0 °F 88% 29.78 in 10.0 mi SSW 13.8 mph 23.0 mph N/A   Mostly Cloudy
1:35 PM 53.6 °F 50.0 °F 88% 29.77 in 10.0 mi SSW 10.4 mph - N/A   Overcast
1:55 PM 53.6 °F 50.0 °F 88% 29.77 in 10.0 mi SSW 11.5 mph - N/A   Overcast
2:15 PM 55.4 °F 51.8 °F 88% 29.78 in 10.0 mi SSW 13.8 mph - N/A   Overcast
2:35 PM 55.4 °F 51.8 °F 88% 29.77 in 10.0 mi South 11.5 mph - N/A   Overcast
2:55 PM 55.4 °F 51.8 °F 88% 29.75 in 10.0 mi South 17.3 mph 21.9 mph N/A   Scattered Clouds
3:15 PM 57.2 °F 51.8 °F 82% 29.76 in 10.0 mi South 18.4 mph 24.2 mph N/A   Clear
3:35 PM 57.2 °F 51.8 °F 82% 29.76 in 10.0 mi South 17.3 mph - N/A   Clear
3:55 PM 55.4 °F 51.8 °F 88% 29.75 in 10.0 mi South 18.4 mph 21.9 mph N/A   Clear
4:15 PM 55.4 °F 50.0 °F 82% 29.75 in 10.0 mi South 17.3 mph - N/A   Clear
4:35 PM 55.4 °F 50.0 °F 82% 29.75 in 10.0 mi South 17.3 mph - N/A   Clear
4:55 PM 53.6 °F 50.0 °F 88% 29.74 in 10.0 mi South 15.0 mph 20.7 mph N/A   Clear
5:15 PM 53.6 °F 50.0 °F 88% 29.73 in 10.0 mi South 16.1 mph - N/A   Clear
5:35 PM 53.6 °F 48.2 °F 82% 29.75 in 10.0 mi South 15.0 mph - N/A   Clear
5:55 PM 51.8 °F 48.2 °F 88% 29.74 in 10.0 mi South 15.0 mph - N/A   Clear
6:15 PM 51.8 °F 48.2 °F 88% 29.75 in 10.0 mi South 15.0 mph - N/A   Clear
6:35 PM 51.8 °F 48.2 °F 88% 29.75 in 10.0 mi South 17.3 mph 23.0 mph N/A   Clear
6:55 PM 53.6 °F 48.2 °F 82% 29.75 in 10.0 mi South 20.7 mph - N/A   Clear
7:15 PM 53.6 °F 48.2 °F 82% 29.75 in 10.0 mi South 19.6 mph 27.6 mph N/A   Clear
7:35 PM 53.6 °F 48.2 °F 82% 29.74 in 10.0 mi South 19.6 mph 26.5 mph N/A   Clear
7:55 PM 53.6 °F 48.2 °F 82% 29.73 in 10.0 mi South 20.7 mph 29.9 mph N/A   Clear
8:15 PM 53.6 °F 48.2 °F 82% 29.73 in 10.0 mi South 23.0 mph 28.8 mph N/A   Clear
8:35 PM 53.6 °F 48.2 °F 82% 29.73 in 10.0 mi South 23.0 mph 29.9 mph N/A   Clear
8:55 PM 53.6 °F 48.2 °F 82% 29.73 in 10.0 mi South 24.2 mph 28.8 mph N/A   Clear
9:15 PM 53.6 °F 48.2 °F 82% 29.74 in 10.0 mi South 17.3 mph 25.3 mph N/A   Clear
9:35 PM 53.6 °F 48.2 °F 82% 29.74 in 10.0 mi South 21.9 mph 26.5 mph N/A   Clear
9:55 PM 53.6 °F 48.2 °F 82% 29.74 in 10.0 mi South 17.3 mph 25.3 mph N/A   Clear
10:15 PM 53.6 °F 48.2 °F 82% 29.74 in 10.0 mi South 17.3 mph 24.2 mph N/A   Clear
10:35 PM 51.8 °F 48.2 °F 88% 29.74 in 10.0 mi South 17.3 mph 20.7 mph N/A   Clear
10:55 PM 51.8 °F 48.2 °F 88% 29.75 in 10.0 mi South 20.7 mph 27.6 mph N/A   Clear
11:15 PM 53.6 °F 48.2 °F 82% 29.75 in 10.0 mi SSW 18.4 mph 24.2 mph N/A   Clear
11:35 PM 53.6 °F 48.2 °F 82% 29.75 in 10.0 mi South 19.6 mph 25.3 mph N/A   Clear
11:55 PM 53.6 °F 48.2 °F 82% 29.75 in 10.0 mi SSW 18.4 mph 26.5 mph N/A   Clear